User: anonymous   Login
Location: Unspecified
(0.0000°N, 0.0000°E)
Time: 03:30:58
(UTC+00:00)
Language:

AO-7 - Orbit

View from above orbital plane
View from above orbital plane
View from above satellite
View from above satellite

Ground track
Ground track

The orbit data is extracted from the following two-line orbital elements,

1 07530U 74089B   21015.52245480 -.00000050  00000-0 -26313-4 0  9998
2 07530 101.8334 350.3184 0012150 317.2644 153.9596 12.53646902112568
Epoch (UTC): 15 January 2021 12:32:20
Eccentricity: 0.0012150
inclination: 101.8334°
perigee height: 1440 km
apogee height: 1459 km
right ascension of ascending node: 350.3184°
argument of perigee: 317.2644°
revolutions per day: 12.53646902
mean anomaly at epoch: 153.9596°
orbit number at epoch: 11256

The dashed part of the orbit path shows where the satellite is in the earth's shadow,  

DLR